Location: Winnipeg
(49.8830°N, 97.1670°W)
Time: 18:38:53
(UTC-06:00)

N. Korean satellite - Visible Passes

Search period start: 06 December 2022 00:00
Search period end: 16 December 2022 00:00
Orbit: 421 x 453 km, 97.3° (Epoch: 06 December)

Date Brightness Start Highest point End Pass type
(mag) Time Alt. Az. Time Alt. Az. Time Alt. Az.
06 Dec 7.8 05:30:03 10° NNE 05:33:16 38° E 05:36:26 10° SSE visible
06 Dec 7.9 07:03:12 10° NNW 07:05:31 17° WNW 07:07:48 10° WSW visible
06 Dec 9.0 17:36:14 10° SSW 17:39:05 25° W 17:41:58 10° NW visible
07 Dec 9.6 04:52:08 10° ENE 04:54:01 14° E 04:55:53 10° SE visible
07 Dec 6.6 06:23:30 10° N 06:26:46 44° WNW 06:29:59 10° SW visible
08 Dec 6.9 05:44:25 10° NNE 05:47:47 58° ESE 05:51:05 10° S visible
08 Dec 8.3 07:18:18 10° NW 07:19:50 13° WNW 07:21:21 10° W visible
08 Dec 9.6 17:51:15 10° SW 17:53:37 17° W 17:56:00 10° NW visible
09 Dec 9.1 05:05:57 10° NE 05:08:32 20° E 05:11:04 10° SE visible
09 Dec 7.1 06:38:04 10° N 06:41:05 30° WNW 06:44:04 10° SW visible
09 Dec 7.6 17:11:01 10° S 17:14:19 48° W 17:17:40 10° NNW visible
10 Dec 6.3 05:58:41 10° NNE 06:02:06 88° ESE 06:05:26 10° SSW visible
10 Dec 9.8 18:06:32 10° WSW 18:08:01 12° W 18:09:31 10° WNW visible
11 Dec 8.4 05:19:52 10° NE 05:22:51 28° E 05:25:47 10° SSE visible
11 Dec 7.6 06:52:33 10° NNW 06:55:13 22° WNW 06:57:50 10° WSW visible
11 Dec 8.4 17:25:28 10° SSW 17:28:34 33° W 17:31:42 10° NNW visible
12 Dec 9.9 04:42:38 10° ENE 04:43:20 10° E 04:44:02 10° E visible
12 Dec 6.3 06:12:52 10° N 06:16:14 60° WNW 06:19:30 10° SSW visible
13 Dec 7.6 05:33:45 10° NNE 05:36:59 41° E 05:40:08 10° S visible
13 Dec 8.0 07:07:02 10° NNW 07:09:10 16° WNW 07:11:15 10° WSW visible
13 Dec 9.2 17:39:55 10° SSW 17:42:40 23° W 17:45:28 10° NW visible
14 Dec 9.5 04:58:31 13° ESE 04:58:31 13° ESE 04:59:27 10° SE visible
14 Dec 7.9 06:26:59 10° N 06:31:55 22° SW 06:33:18 10° SW visible
15 Dec 8.2 05:47:35 10° NNE 05:52:53 22° S 05:54:11 10° S visible
15 Dec8.707:26:16WSW07:26:16WSW07:21:30NWvisible
15 Dec 9.6 17:54:25 10° SW 17:56:39 16° W 17:58:54 10° NW visible
